Tracking 31027 objects as of 19-Jul-2025
HD Live streaming from Space Station
objects crossing your sky now

SL-14 R/B

Track SL-14 R/B now!
10-day predictions
SL-14 R/B is classified as:


NORAD ID: 18153
Int'l Code: 1987-055B
Perigee: 604.2 km
Apogee: 635.3 km
Inclination: 82.5 °
Period: 96.9 minutes
Semi major axis: 6990 km
RCS: 4.7715 m2 (large)
Launch date: July 1, 1987
Source: Commonwealth of Independent States (former USSR) (CIS)
Launch site: PLESETSK MISSILE AND SPACE COMPLEX (PKMTR)

Note: This is a ROCKET BODY
Your satellite tracking list
THORAD DELTA 1 DEB
Track 1 satellite(s)




NASA's NSSDC Master Catalog

Two Line Element Set (TLE):
1 18153U 87055B   25199.46605332  .00000346  00000-0  37218-4 0  9996
2 18153  82.4977 209.7430 0022255  69.6952 290.6653 14.85320414 35163
Source of the keplerian elements: AFSPC